Flag for Norway Weather past 2 weeks in Halden, Norway

Now
51 °F

Cool.


Feels Like: 45 °F
Forecast: 43 / 62 °F
Wind: 17 mph from Southwest

Location: Stromtangen Fyr

Current Time: May 22, 2015 at 2:39:06 PM

Latest Report: May 22, 2015 at 2:00 PM


Visibility: N/A

Pressure: 29.91 "Hg

Humidity: 93%

Dew point: 49 °F

Location of HaldenLocation

Historic Weather in Halden — Graph

°F

Halden temperature yesterday

Maximum temperature yesterday: 52 °F (at 2:00 PM)
Minimum temperature yesterday: 49 °F (at 2:00 AM)
Average temperature yesterday: 50 °F

Past Weeks' High & Low Weather Summary

 TemperatureHumidityPressure
High57 °F (May 14, 4:00 PM)96% (May 12, 1:00 AM)30.16 "Hg (May 12, 1:00 AM)
Low40 °F (May 10, 8:00 AM)31% (May 14, 4:00 PM)29.41 "Hg (May 19, 7:00 AM)
Average49 °F73%29.83 "Hg
* Reported May 7 1:00 PM — May 22 1:00 PM, Halden, Weather by CustomWeather, © 2015

Note: Actual official high and low records may vary slightly from our data, if they occured in-between our weather recording intervals... More about our weather records

Advertising

Halden weather history for previous 24 hours

 ConditionsComfort  
Time TempWeatherWind HumidityBarometerVisibility
1:00 PM
Fri, May 22
51 °FCool.16 mph93%29.94 "HgN/A
12:00 PM51 °FCool.15 mph91%29.96 "HgN/A
11:00 AM51 °FCool.15 mph90%29.98 "HgN/A
10:00 AM50 °FCool.14 mph91%30.00 "HgN/A
9:00 AM50 °FCool.14 mph88%30.01 "HgN/A
8:00 AM50 °FCool.14 mph87%30.01 "HgN/A
7:00 AM50 °FCool.15 mph84%30.00 "HgN/A
6:00 AM50 °FCool.15 mph84%30.00 "HgN/A
5:00 AM50 °FCool.14 mph84%30.01 "HgN/A
4:00 AM50 °FCool.14 mph82%30.01 "HgN/A
3:00 AM51 °FCool.13 mph79%30.02 "HgN/A
2:00 AM51 °FCool.13 mph79%30.01 "HgN/A
1:00 AM52 °FCool.10 mph83%30.01 "HgN/A
12:00 AM51 °FCool.9 mph88%30.02 "HgN/A
11:00 PM
Thu, May 21
51 °FCool.12 mph87%30.03 "HgN/A
10:00 PM51 °FCool.10 mph84%30.05 "HgN/A
9:00 PM50 °FCool.12 mph83%30.05 "HgN/A
8:00 PM50 °FCool.12 mph81%30.06 "HgN/A
7:00 PM51 °FCool.13 mph84%30.05 "HgN/A
6:00 PM51 °FCool.13 mph82%30.05 "HgN/A
5:00 PM51 °FCool.13 mph82%30.05 "HgN/A
4:00 PM51 °FCool.10 mph81%30.06 "HgN/A
3:00 PM51 °FCool.10 mph81%30.06 "HgN/A
2:00 PM52 °FCool.12 mph80%30.05 "HgN/A
Weather by CustomWeather, © 2015

See weather overviewHow to use our weather pages